Showing default

KSM1-D, 46907

Orbit data source: Space-Track

KSM1-D, 46907 is a payload satellite owned by Kleos Space (LU) in LEO that was launched on Sat, 07 Nov 2020 UTC via a PSLV-DL launch vehicle from the Sirharikota (SRI). Payload-class satellites include a variety of spacecraft equipped with specific instruments for various scientific and technological missions. These include communications satellites like Starlink; space stations such as the ISS; scientific satellites like the Hubble; Earth observation satellites from companies like Planet Labs, Umbra, and HawkEye 360; GPS; miniature CubeSats for education and research; and military/defense satellites.

Loading next visibility...
Identifier
46907, 2020-081C
Orbit
LEO
Country
Flag of LULU / LUXE
Related business
Manufacturer
GOMSpace
Mission
Operational Commercial Sigint
Bus & Motor
CUBESAT 6U, Unknown motor
Mass
~10 kg wet, ~10 kg dry
Launch date (UTC)
2020-11-07 (5 years ago)
Launch vehicle
PSLV-DL
Launch site
Sirharikota (SRI)
Object type
Payload
Rocket body
Debris
Shape & HBR
Box, 1.0 m
Radar Cross Section
0.080 m², Medium (>0.1 m² and < 1m²)

Expand to show TLE details & history
Last TLE update: 6 hours ago

TLE from 6 hours ago
0 KSM1-D
1 46907U 20081C   26127.81491573  .00005672  00000-0  23136-3 0  9991
2 46907  36.8970 316.3047 0005236 276.9912  83.0241 15.24170579302933
Epoch: 2026-05-07T19:33Z
TLE epoch observation values (Epoch: 2026-05-07T19:33:28.719Z)
Latitude
0.00001°
Longitude
157.2794°
Altitude
491.949 km
Speed
7.621 km/s
True Right ascension
21h 05m 13s
True Declination
0° 00' 00"
Sunlit
Object was in daylight at epoch
Visualization orbit readout
Latitude
Unknown
Longitude
Unknown
Altitude
Unknown
Speed
Unknown
Apparent Right ascension
Unknown
Apparent Declination
Unknown
Sunlit
N/A
Visualization observer readout
Local Sidereal Time
10:04:55
Azimuth
Unknown
Elevation
Unknown
Doppler factor
Unknown
Orbital elements
Apogee altitude
499.826 km
Perigee altitude
492.627 km
Semi-major axis
6,874.363 km
Eccentricity
0.00052
Inclination
36.897°
RAAN
316.3047°
Arg. of periapsis
276.9912°
True anomaly
83.08366°
Mean anomaly
83.0241°
Eccentric anomaly
83.05388°
Mean motion
3.80798 °/min
Orbital period
94.54 mins
BSTAR
0.00023136
Loading maneuver chart data...
Computing Atmospheric mass density...
Loading historical data...
Loading historical data...
Loading historical data...
Loading historical data...
Loading historical data...
Loading historical data...
Loading historical data...

Documentation

Showing up to 5 results
|